Regional Weather Roundup
Issued by NWS

Home | Current Version | Previous Version | Text Only | Print | Product List | Glossary Off
Versions: 1 2 3 4 5 6 7 8 9 10 11 12 13 14 15 16 17 18 19 20 21 22 23 24 25 26 27 28 29 30 31 32 33 34 35 36 37 38 39 40 41 42 43 44 45 46 47 48 49 50

571
ASUS43 KLOT 100903
RWRIL

ILLINOIS REGIONAL WEATHER ROUNDUP
NATIONAL WEATHER SERVICE CHICAGO/ROMEOVILLE IL
300 AM CST WED FEB 10 2016

NOTE: "FAIR" INDICATES FEW OR NO CLOUDS BELOW 12,000 FEET WITH NO
SIGNIFICANT WEATHER AND/OR OBSTRUCTIONS TO VISIBILITY.

* THESE STATIONS ARE NOT UNDER NWS QUALITY CONTROL. THEY ALSO MAY NOT
  REPORT WEATHER SUCH AS PRECIPITATION OR FOG.

ILZ001-002-007-009-015-016-024-101000-
NORTHWEST ILLINOIS

CITY           SKY/WX    TMP DP  RH WIND       PRES   REMARKS
MOLINE         CLEAR      9   0  67 NW8       30.10R WCI  -3
STERLING*      CLEAR      9   0  66 NW10      30.04R WCI  -6
$$

ILZ003-004-008-010-011-017-018-101000-
NORTH CENTRAL ILLINOIS

CITY           SKY/WX    TMP DP  RH WIND       PRES   REMARKS
ROCKFORD       CLOUDY     9   0  67 NW13      30.03R WCI  -7
FREEPORT*      PTCLDY     7   0  71 NW10G16   30.06R WCI  -7
ROCHELLE*      CLEAR      9   1  72 NW12      30.02R WCI  -6
DE KALB*       CLOUDY    10   3  71 NW9       29.99R WCI  -2
$$

ILZ005-006-012>014-019>023-101000-
NORTHEAST ILLINOIS

CITY           SKY/WX    TMP DP  RH WIND       PRES   REMARKS
CHICAGO-OHARE  PTCLDY    12   2  64 NW14      29.95S WCI  -3
CHICAGO-MIDWAY PTCLDY    14   2  58 NW13      29.96S WCI   0
AURORA         MOCLDY    12   3  67 NW15      29.99R WCI  -4
LANSING*       MOCLDY    14   4  65 NW14G21   29.95F WCI  -1
WAUKEGAN       PTCLDY    10   1  67 NW8       29.95R WCI  -2
DUPAGE AIRPORT CLEAR     11   1  64 NW14      29.96S WCI  -5
WHEELING       CLEAR     11   1  64 NW12      29.97S WCI  -3
MORRIS*        CLEAR     11   4  73 NW10      29.96S WCI  -2
NORTHERLY ISL    N/A     14   4  64 NW14        N/A  WCI  -1
$$

LMZ740>746-101000-
SOUTHERN LAKE MICHIGAN

STATION/POSITION SKY/WX   TEMP    WIND        PRES    VSBY  WAVE
                          AIR SEA DIR/SP/G                  HT/PER
                          (F)     (DEG/KT/KT) (MB)    (MI)  (FT/S)
HARRISON CRIB              16     310/ 25/ 29   N/A
BURNHAM HARBOR             15     300/ 14/ 22   N/A
CALUMET HARBOR             15     300/ 14/ 20 1013.7R
BURNS HARBOR               19     310/ 23/ 25 1013.5R
MICHIGAN CITY              20     280/ 30/ 33   N/A
$$

ILZ025>027-034>036-040-047-049-050-058-095>099-101000-
WEST-CENTRAL ILLINOIS

CITY           SKY/WX    TMP DP  RH WIND       PRES   REMARKS
QUINCY         CLEAR     11   3  70 NW10      30.14S WCI  -3
MACOMB*        CLEAR      9   4  79 W12       30.13S WCI  -6
$$

ILZ028>032-037-038-041>044-048-051>054-059>061-101000-
CENTRAL ILLINOIS

CITY           SKY/WX    TMP DP  RH WIND       PRES   REMARKS
BLOOMINGTON    CLEAR     10   3  73 NW12      30.03S WCI  -5
DECATUR        CLEAR     11   4  73 NW12      30.06S WCI  -3
PEORIA         CLEAR     11   1  64 NW7       30.07S WCI   0
LACON*         CLEAR     10   2  72 NW9G17    30.06R WCI  -3
LINCOLN*       CLEAR     12   5  73 W3        30.07F
SPRINGFIELD    PTCLDY    12   4  70 NW12      30.10F WCI  -2
TAYLORVILLE    NOT AVBL
$$

ILZ033-039-045-046-055>057-062-063-101000-
EAST-CENTRAL ILLINOIS

CITY           SKY/WX    TMP DP  RH WIND       PRES   REMARKS
CHAMPAIGN      CLEAR     11   4  73 W14       30.03S WCI  -5
MATTOON        MOCLDY    11   4  73 NW15      30.05R WCI  -5
$$

ILZ079-100>102-101000-
SOUTHWEST ILLINOIS

CITY           SKY/WX    TMP DP  RH WIND       PRES   REMARKS
ALTON          CLEAR     15   6  68 NW13G20   30.15S WCI   0
BELLEVILLE     PTCLDY    15   6  67 NW9G20    30.15R WCI   4
CAHOKIA*       CLOUDY    19   7  59 NW13      30.16S WCI   6
SPARTA*        CLOUDY    17   8  69 NW10      30.16R WCI   5
$$

ILZ064>066-069>071-074>076-080>082-084>086-088>090-092>094-101000-
SOUTH-CENTRAL ILLINOIS

CITY           SKY/WX    TMP DP  RH WIND       PRES   REMARKS
CARBONDALE     CLOUDY    18   7  62 NW13      30.16R WCI   5
MARION         FLURRIES  19  10  68 N7        30.16R WCI  10
MT. VERNON     CLOUDY    16   3  57 NW5G16    30.13R WCI   9
CENTRALIA*     CLOUDY    17   8  70 NW13G22   30.13R WCI   3
SALEM*         MOCLDY    16   6  66 NW14      30.12R WCI   1
$$

ILZ067-068-072-073-078-083-087-091-101000-
SOUTHEAST ILLINOIS

CITY           SKY/WX    TMP DP  RH WIND       PRES   REMARKS
LAWRENCEVILLE  MOCLDY    15   6  67 NW16      30.08R WCI  -1
HARRISBURG*    PTCLDY    17   8  70 NW10      30.14R WCI   4
$$

ABBREVIATIONS USED IN REMARKS
   TC - TEMPERATURE IN CELSIUS
  WCI - WIND CHILL INDEX
   HX - HEAT INDEX
  VSB - VISIBILITY
$$





USA.gov is the U.S. government's official web portal to all federal, state and local government web resources and services.